Starlink 3399

operational
NORAD ID: 51121 Int'l Des: 2022-005 Owner: SPXS Country: US Constellation: starlink
LEOCIRCULAR

About Starlink 3399

Description loading...

Live Position

Loading 3D Globe...

Upcoming Passes

Altitude History

Altitude vs Time

uPlot chart will show altitude changes over time

Two-Line Element Set

1 51121U 22005T 26035.41805785 -.00000838 00000-0 -34555-4 0 9990
2 51121 53.2171 78.4953 0001344 87.2477 272.8669 15.08832888223855
Epoch: Feb 4, 2026 • Age: 29 hours

Current Status

Altitude 545.4 km
Velocity 7.60 km/s
Sub-Earth Point 53.36°N, 160.23°E
Launch Date Jan 19, 2022
Age 4 years
Type internet

Technical Details

Classification Payload
Mass 297.00 kg
Dry Mass 275.00 kg
Total Mass 297.00 kg
Length 0.20 m
Diameter 2.80 m
Span 9.00 m
Shape Box + pan
Manufacturer SPXS
Bus Type Starlink
Phase Status In Orbit
Owner/State SPXS/US

Large Constellations

Loading constellations...